QPF
0.00 0.00 0.00 0.00 0.00 0.00 0.00 0.00 0.00 0.00 0.00 0.00 0.00 0.00 0.00 0.00 0.00 0.00 0.00 0.00 0.00 0.00 0.00 0.00 0.00 0.00 0.00 0.00 0.00 0.00 0.00 0.00 0.00 0.00 0.00 0.00 0.00 0.00 0.00 0.00 0.00 0.00 0.00 0.01
0.00 0.00 0.00 0.00 0.00 0.00 0.00 0.00 0.00 0.00 0.00 0.00 0.00 0.00 0.00 0.00 0.00 0.00 0.00 0.00 0.00 0.00 0.00 0.00 0.00 0.00 0.00 0.00 0.00 0.00 0.00 0.00 0.00 0.00 0.00 0.00 0.00 0.00 0.00 0.00 0.00 0.00 0.00 0.00
0.00 0.00 0.00 0.00 0.00 0.00 0.00 0.00 0.00 0.00 0.00 0.00 0.00 0.00 0.00 0.00 0.00 0.00 0.00 0.00 0.00 0.00 0.00 0.00 0.00 0.00 0.00 0.00 0.00 0.00 0.00 0.00 0.00 0.00 0.00 0.00 0.00 0.00 0.00 0.00 0.00 0.00 0.00 0.00
0.00 0.00 0.00 0.00 0.00 0.00 0.00 0.00 0.00 0.00 0.00 0.00 0.00 0.00 0.00 0.00 0.00 0.00 0.00 0.00 0.00 0.00 0.00 0.00 0.00 0.00 0.00 0.00 0.00 0.00 0.00 0.00 0.00 0.00 0.00 0.00 0.00 0.00 0.00 0.00 0.00 0.00 0.00 0.00
0.00 0.00 0.00 0.00 0.00 0.00 0.00 0.00 0.00 0.00 0.00 0.00 0.00 0.00 0.00 0.00 0.00 0.00 0.00 0.00 0.00 0.00 0.00 0.00 0.00 0.00 0.00 0.00 0.00 0.00 0.00 0.00 0.00 0.00 0.00 0.00 0.00 0.00 0.00 0.00 0.00 0.00 0.00 0.00
0.00 0.00 0.00 0.00 0.00 0.00 0.00 0.00 0.00 0.00 0.00 0.00 0.00 0.00 0.00 0.00 0.00 0.00 0.00 0.00 0.00 0.00 0.00 0.00 0.00 0.00 0.00 0.00 0.00 0.00 0.00 0.00 0.00 0.00 0.00 0.00 0.00 0.00 0.00 0.00 0.00 0.00 0.00 0.00
0.00 0.00 0.00 0.00 0.00 0.00 0.00 0.00 0.01 0.01 0.00 0.00 0.00 0.00 0.00 0.00 0.00 0.00 0.00 0.00 0.00 0.00 0.00 0.00 0.00 0.00 0.00 0.00 0.00 0.00 0.00 0.00 0.00 0.00 0.00 0.00 0.00 0.00 0.00 0.00 0.00 0.00 0.00 0.00
0.01 0.00 0.00 0.01 0.01 0.00 0.00 0.00 0.00 0.00 0.00 0.00 0.00 0.00 0.00 0.00 0.00 0.00 0.00 0.00 0.00 0.00 0.00 0.00 0.00 0.00 0.00 0.00 0.00 0.00 0.00 0.00 0.00 0.00 0.00 0.00 0.00 0.00 0.00 0.00 0.00 0.00 0.00 0.00
0.02 0.01 0.00 0.00 0.00 0.00 0.00 0.00 0.00 0.00 0.00 0.00 0.00 0.00 0.00 0.00 0.00 0.00 0.00 0.00 0.00 0.00 0.00 0.00 0.00 0.00 0.00 0.00 0.00 0.00 0.00 0.00 0.00 0.00 0.00 0.00 0.00 0.00 0.00 0.00 0.00 0.00 0.00 0.00
0.03 0.02 0.01 0.00 0.00 0.00 0.01 0.01 0.01 0.01 0.01 0.00 0.00 0.00 0.00 0.00 0.00 0.00 0.00 0.00 0.00 0.00 0.00 0.00 0.00 0.00 0.00 0.00 0.00 0.00 0.00 0.00 0.00 0.00 0.00 0.00 0.00 0.00 0.00 0.00 0.00 0.00 0.00 0.01
0.03 0.02 0.01 0.01 0.01 0.01 0.01 0.01 0.01 0.01 0.00 0.00 0.00 0.00 0.00 0.00 0.00 0.00 0.00 0.00 0.00 0.00 0.00 0.00 0.00 0.00 0.00 0.00 0.00 0.00 0.00 0.00 0.00 0.00 0.00 0.00 0.00 0.00 0.00 0.00 0.00 0.00 0.00 0.00
0.02 0.02 0.02 0.01 0.02 0.01 0.01 0.01 0.01 0.01 0.01 0.00 0.00 0.00 0.00 0.00 0.00 0.00 0.00 0.00 0.00 0.00 0.00 0.00 0.00 0.00 0.00 0.00 0.00 0.00 0.00 0.00 0.00 0.00 0.00 0.00 0.00 0.00 0.00 0.00 0.00 0.00 0.00 0.00
0.04 0.04 0.03 0.02 0.02 0.03 0.03 0.02 0.01 0.01 0.01 0.00 0.00 0.01 0.00 0.00 0.00 0.00 0.00 0.00 0.00 0.00 0.00 0.00 0.00 0.00 0.00 0.00 0.00 0.00 0.00 0.00 0.00 0.00 0.00 0.00 0.00 0.00 0.00 0.00 0.00 0.00 0.00 0.00
0.06 0.05 0.03 0.02 0.02 0.02 0.02 0.03 0.02 0.02 0.02 0.01 0.01 0.00 0.00 0.00 0.00 0.00 0.00 0.00 0.00 0.00 0.00 0.00 0.00 0.00 0.00 0.00 0.00 0.00 0.00 0.00 0.00 0.00 0.00 0.00 0.00 0.00 0.00 0.00 0.00 0.00 0.00 0.00
0.06 0.05 0.02 0.01 0.01 0.01 0.01 0.01 0.01 0.02 0.02 0.01 0.00 0.00 0.00 0.00 0.01 0.01 0.00 0.00 0.00 0.00 0.00 0.00 0.00 0.00 0.00 0.00 0.00 0.00 0.00 0.00 0.00 0.00 0.00 0.00 0.00 0.00 0.01 0.00 0.00 0.01 0.00 0.00
0.05 0.05 0.02 0.01 0.01 0.01 0.01 0.00 0.00 0.01 0.01 0.01 0.00 0.00 0.00 0.00 0.00 0.00 0.00 0.00 0.00 0.00 0.00 0.00 0.00 0.00 0.00 0.00 0.00 0.00 0.00 0.00 0.00 0.00 0.00 0.00 0.00 0.00 0.00 0.00 0.01 0.01 0.01 0.00
0.05 0.04 0.03 0.02 0.02 0.02 0.01 0.00 0.00 0.00 0.00 0.00 0.00 0.00 0.00 0.00 0.00 0.00 0.00 0.00 0.00 0.00 0.00 0.00 0.00 0.00 0.00 0.00 0.00 0.00 0.00 0.00 0.00 0.00 0.00 0.00 0.01 0.01 0.01 0.01 0.01 0.01 0.01 0.01
0.04 0.03 0.03 0.02 0.02 0.02 0.01 0.00 0.00 0.00 0.00 0.00 0.00 0.00 0.00 0.00 0.00 0.00 0.00 0.00 0.00 0.00 0.00 0.00 0.00 0.00 0.00 0.00 0.00 0.00 0.00 0.00 0.00 0.00 0.00 0.00 0.00 0.01 0.01 0.01 0.02 0.02 0.02 0.02
0.02 0.04 0.04 0.03 0.02 0.02 0.01 0.00 0.01 0.00 0.00 0.00 0.00 0.00 0.00 0.00 0.00 0.00 0.00 0.00 0.00 0.00 0.00 0.00 0.00 0.00 0.00 0.00 0.00 0.00 0.00 0.00 0.00 0.00 0.00 0.00 0.00 0.00 0.01 0.01 0.01 0.01 0.02 0.02
0.03 0.05 0.06 0.05 0.03 0.02 0.01 0.00 0.01 0.01 0.01 0.01 0.00 0.00 0.00 0.00 0.00 0.00 0.00 0.00 0.00 0.00 0.00 0.00 0.00 0.00 0.00 0.00 0.00 0.00 0.00 0.00 0.00 0.00 0.00 0.00 0.00 0.00 0.00 0.00 0.00 0.00 0.01 0.01
0.03 0.05 0.06 0.05 0.04 0.03 0.02 0.01 0.01 0.02 0.02 0.01 0.01 0.00 0.00 0.00 0.01 0.01 0.01 0.00 0.00 0.00 0.00 0.00 0.00 0.00 0.00 0.00 0.00 0.00 0.00 0.00 0.00 0.00 0.00 0.00 0.00 0.00 0.00 0.00 0.00 0.00 0.00 0.01
0.01 0.02 0.03 0.03 0.04 0.03 0.02 0.01 0.02 0.02 0.01 0.01 0.01 0.01 0.01 0.01 0.01 0.01 0.01 0.01 0.00 0.00 0.00 0.00 0.00 0.00 0.00 0.00 0.00 0.00 0.00 0.00 0.00 0.00 0.00 0.00 0.00 0.00 0.00 0.00 0.00 0.00 0.00 0.01
0.01 0.02 0.02 0.02 0.03 0.02 0.01 0.02 0.02 0.01 0.01 0.01 0.00 0.00 0.00 0.00 0.00 0.00 0.00 0.00 0.00 0.00 0.00 0.00 0.00 0.00 0.00 0.00 0.00 0.00 0.00 0.00 0.00 0.00 0.00 0.00 0.00 0.00 0.00 0.00 0.00 0.00 0.01 0.01
0.01 0.01 0.01 0.02 0.01 0.01 0.01 0.01 0.01 0.01 0.01 0.01 0.00 0.00 0.00 0.00 0.00 0.00 0.00 0.00 0.00 0.00 0.00 0.00 0.00 0.00 0.00 0.00 0.00 0.00 0.00 0.00 0.00 0.00 0.00 0.00 0.00 0.00 0.00 0.00 0.00 0.01 0.01 0.02
0.01 0.01 0.01 0.02 0.02 0.01 0.01 0.00 0.00 0.01 0.01 0.00 0.00 0.00 0.00 0.00 0.00 0.00 0.00 0.00 0.00 0.00 0.01 0.01 0.00 0.00 0.00 0.00 0.00 0.00 0.00 0.00 0.00 0.00 0.00 0.00 0.00 0.01 0.00 0.00 0.00 0.01 0.02 0.03
0.01 0.01 0.02 0.02 0.02 0.03 0.02 0.01 0.00 0.00 0.00 0.00 0.00 0.00 0.00 0.00 0.00 0.00 0.00 0.00 0.00 0.00 0.00 0.00 0.00 0.00 0.00 0.00 0.00 0.00 0.00 0.01 0.00 0.00 0.00 0.01 0.00 0.01 0.00 0.01 0.00 0.01 0.02 0.03
MSLP
1009.93 1009.92 1009.92 1009.96 1010.07 1010.23 1010.44 1010.66 1010.83 1010.89 1010.82 1010.59 1010.20 1009.70 1009.15 1008.62 1008.19 1007.90 1007.81 1007.93 1008.24 1008.72 1009.33 1010.01 1010.74 1011.47 1012.20 1012.90 1013.59 1014.25 1014.89 1015.50 1016.07 1016.61 1017.09 1017.53 1017.91 1018.25 1018.53 1018.78 1018.98 1019.15 1019.29 1019.41
1009.68 1009.60 1009.56 1009.59 1009.72 1009.93 1010.21 1010.50 1010.72 1010.81 1010.71 1010.42 1009.93 1009.31 1008.62 1007.96 1007.43 1007.09 1006.98 1007.13 1007.51 1008.07 1008.77 1009.55 1010.34 1011.12 1011.87 1012.58 1013.25 1013.89 1014.51 1015.12 1015.70 1016.27 1016.79 1017.28 1017.71 1018.09 1018.42 1018.69 1018.93 1019.11 1019.27 1019.39
1009.41 1009.29 1009.23 1009.27 1009.43 1009.70 1010.04 1010.38 1010.63 1010.72 1010.58 1010.20 1009.60 1008.84 1008.01 1007.24 1006.61 1006.22 1006.10 1006.28 1006.71 1007.36 1008.14 1008.99 1009.84 1010.66 1011.43 1012.13 1012.79 1013.42 1014.04 1014.65 1015.26 1015.85 1016.42 1016.95 1017.43 1017.84 1018.20 1018.51 1018.76 1018.97 1019.14 1019.29
1009.08 1008.97 1008.93 1009.00 1009.21 1009.54 1009.93 1010.31 1010.56 1010.62 1010.41 1009.94 1009.22 1008.33 1007.39 1006.51 1005.81 1005.38 1005.26 1005.47 1005.95 1006.65 1007.50 1008.40 1009.29 1010.13 1010.90 1011.60 1012.25 1012.88 1013.51 1014.13 1014.77 1015.39 1016.00 1016.56 1017.07 1017.51 1017.90 1018.22 1018.49 1018.73 1018.93 1019.10
1008.68 1008.61 1008.63 1008.77 1009.04 1009.42 1009.85 1010.24 1010.48 1010.48 1010.20 1009.63 1008.81 1007.82 1006.79 1005.84 1005.10 1004.66 1004.55 1004.78 1005.30 1006.05 1006.92 1007.84 1008.74 1009.58 1010.34 1011.03 1011.68 1012.31 1012.95 1013.60 1014.26 1014.92 1015.56 1016.15 1016.68 1017.14 1017.53 1017.87 1018.16 1018.41 1018.64 1018.84
1008.17 1008.19 1008.30 1008.52 1008.86 1009.29 1009.74 1010.12 1010.33 1010.27 1009.92 1009.27 1008.37 1007.32 1006.24 1005.27 1004.53 1004.11 1004.03 1004.29 1004.84 1005.60 1006.48 1007.39 1008.26 1009.07 1009.81 1010.48 1011.12 1011.75 1012.41 1013.09 1013.78 1014.48 1015.14 1015.75 1016.30 1016.76 1017.16 1017.50 1017.80 1018.07 1018.32 1018.56
1007.57 1007.69 1007.89 1008.20 1008.60 1009.07 1009.53 1009.89 1010.05 1009.94 1009.52 1008.82 1007.88 1006.81 1005.74 1004.80 1004.11 1003.74 1003.71 1004.01 1004.58 1005.34 1006.19 1007.06 1007.89 1008.65 1009.34 1009.98 1010.61 1011.25 1011.92 1012.63 1013.36 1014.08 1014.77 1015.40 1015.95 1016.41 1016.81 1017.15 1017.45 1017.73 1018.01 1018.27
1006.90 1007.11 1007.39 1007.77 1008.22 1008.71 1009.16 1009.48 1009.59 1009.42 1008.97 1008.24 1007.31 1006.28 1005.27 1004.41 1003.81 1003.52 1003.56 1003.91 1004.50 1005.24 1006.05 1006.86 1007.62 1008.31 1008.94 1009.55 1010.15 1010.79 1011.48 1012.22 1012.98 1013.73 1014.44 1015.08 1015.63 1016.10 1016.49 1016.83 1017.13 1017.43 1017.73 1018.02
1006.21 1006.47 1006.80 1007.22 1007.68 1008.16 1008.58 1008.86 1008.92 1008.72 1008.24 1007.53 1006.65 1005.70 1004.80 1004.07 1003.59 1003.41 1003.53 1003.92 1004.52 1005.24 1006.00 1006.73 1007.41 1008.02 1008.59 1009.15 1009.73 1010.37 1011.07 1011.83 1012.62 1013.40 1014.13 1014.78 1015.33 1015.80 1016.19 1016.53 1016.84 1017.16 1017.48 1017.79
1005.57 1005.83 1006.16 1006.57 1007.02 1007.46 1007.83 1008.05 1008.07 1007.84 1007.38 1006.71 1005.91 1005.08 1004.32 1003.74 1003.40 1003.34 1003.54 1003.98 1004.58 1005.26 1005.96 1006.61 1007.21 1007.75 1008.25 1008.76 1009.32 1009.95 1010.66 1011.44 1012.24 1013.04 1013.79 1014.45 1015.01 1015.48 1015.87 1016.22 1016.55 1016.89 1017.23 1017.56
1005.06 1005.27 1005.55 1005.90 1006.29 1006.66 1006.97 1007.14 1007.12 1006.89 1006.46 1005.86 1005.17 1004.48 1003.87 1003.44 1003.24 1003.28 1003.56 1004.03 1004.62 1005.26 1005.88 1006.46 1006.98 1007.44 1007.89 1008.37 1008.90 1009.52 1010.23 1011.01 1011.83 1012.63 1013.39 1014.05 1014.62 1015.10 1015.51 1015.87 1016.22 1016.58 1016.94 1017.29
1004.76 1004.85 1005.04 1005.30 1005.60 1005.89 1006.12 1006.24 1006.20 1005.99 1005.60 1005.10 1004.53 1003.97 1003.51 1003.22 1003.13 1003.26 1003.59 1004.06 1004.62 1005.21 1005.78 1006.28 1006.73 1007.13 1007.53 1007.97 1008.48 1009.09 1009.79 1010.56 1011.38 1012.18 1012.93 1013.60 1014.18 1014.66 1015.08 1015.47 1015.84 1016.21 1016.59 1016.96
1004.68 1004.65 1004.71 1004.85 1005.05 1005.26 1005.43 1005.51 1005.46 1005.28 1004.96 1004.55 1004.10 1003.68 1003.34 1003.16 1003.16 1003.34 1003.68 1004.14 1004.66 1005.19 1005.69 1006.13 1006.52 1006.87 1007.23 1007.64 1008.13 1008.71 1009.39 1010.14 1010.93 1011.71 1012.45 1013.11 1013.69 1014.18 1014.61 1015.01 1015.39 1015.78 1016.17 1016.54
1004.83 1004.66 1004.59 1004.62 1004.72 1004.86 1004.98 1005.05 1005.02 1004.89 1004.65 1004.35 1004.01 1003.70 1003.46 1003.36 1003.41 1003.60 1003.93 1004.35 1004.82 1005.29 1005.72 1006.10 1006.44 1006.76 1007.09 1007.46 1007.92 1008.47 1009.11 1009.82 1010.57 1011.31 1012.02 1012.65 1013.21 1013.70 1014.13 1014.53 1014.92 1015.30 1015.69 1016.04
1005.16 1004.87 1004.70 1004.64 1004.66 1004.75 1004.85 1004.93 1004.95 1004.89 1004.75 1004.55 1004.32 1004.10 1003.95 1003.90 1003.96 1004.15 1004.44 1004.80 1005.20 1005.60 1005.98 1006.31 1006.61 1006.89 1007.19 1007.54 1007.95 1008.45 1009.04 1009.68 1010.37 1011.05 1011.70 1012.29 1012.82 1013.29 1013.70 1014.08 1014.45 1014.82 1015.17 1015.50
1005.60 1005.23 1004.98 1004.87 1004.86 1004.93 1005.05 1005.18 1005.26 1005.30 1005.26 1005.17 1005.04 1004.91 1004.82 1004.79 1004.86 1005.01 1005.25 1005.55 1005.88 1006.22 1006.54 1006.83 1007.09 1007.34 1007.61 1007.91 1008.28 1008.71 1009.22 1009.78 1010.38 1010.98 1011.55 1012.08 1012.56 1012.98 1013.36 1013.71 1014.04 1014.35 1014.66 1014.93
1006.07 1005.66 1005.39 1005.25 1005.25 1005.35 1005.52 1005.72 1005.91 1006.04 1006.13 1006.15 1006.12 1006.07 1006.03 1006.02 1006.07 1006.19 1006.38 1006.61 1006.88 1007.16 1007.42 1007.67 1007.90 1008.12 1008.34 1008.60 1008.90 1009.25 1009.67 1010.12 1010.61 1011.11 1011.59 1012.04 1012.44 1012.81 1013.13 1013.42 1013.69 1013.94 1014.17 1014.38
1006.49 1006.10 1005.84 1005.74 1005.78 1005.94 1006.19 1006.48 1006.78 1007.03 1007.23 1007.37 1007.44 1007.46 1007.47 1007.48 1007.52 1007.61 1007.74 1007.92 1008.13 1008.35 1008.57 1008.78 1008.97 1009.15 1009.33 1009.52 1009.74 1010.00 1010.31 1010.65 1011.02 1011.40 1011.77 1012.13 1012.45 1012.74 1012.99 1013.21 1013.40 1013.57 1013.72 1013.85
1006.84 1006.50 1006.30 1006.26 1006.37 1006.62 1006.96 1007.35 1007.76 1008.13 1008.45 1008.68 1008.84 1008.94 1008.98 1009.01 1009.05 1009.11 1009.21 1009.34 1009.50 1009.67 1009.84 1010.01 1010.15 1010.29 1010.41 1010.53 1010.67 1010.83 1011.02 1011.25 1011.49 1011.76 1012.02 1012.28 1012.51 1012.72 1012.89 1013.03 1013.14 1013.23 1013.29 1013.33
1007.15 1006.89 1006.77 1006.81 1007.01 1007.34 1007.77 1008.26 1008.77 1009.24 1009.65 1009.97 1010.20 1010.35 1010.43 1010.48 1010.51 1010.55 1010.61 1010.70 1010.81 1010.93 1011.06 1011.18 1011.27 1011.35 1011.41 1011.46 1011.51 1011.57 1011.66 1011.77 1011.91 1012.06 1012.23 1012.39 1012.54 1012.66 1012.76 1012.82 1012.85 1012.86 1012.84 1012.80
1007.46 1007.29 1007.27 1007.41 1007.69 1008.10 1008.61 1009.18 1009.75 1010.29 1010.75 1011.13 1011.40 1011.59 1011.69 1011.74 1011.76 1011.77 1011.80 1011.85 1011.91 1011.98 1012.06 1012.12 1012.16 1012.18 1012.17 1012.15 1012.12 1012.10 1012.09 1012.11 1012.15 1012.21 1012.29 1012.37 1012.44 1012.50 1012.52 1012.52 1012.49 1012.42 1012.33 1012.23
1007.86 1007.80 1007.88 1008.11 1008.46 1008.94 1009.50 1010.10 1010.70 1011.26 1011.74 1012.12 1012.40 1012.59 1012.68 1012.72 1012.71 1012.69 1012.68 1012.67 1012.68 1012.69 1012.71 1012.71 1012.69 1012.65 1012.59 1012.50 1012.41 1012.32 1012.24 1012.18 1012.15 1012.15 1012.16 1012.18 1012.19 1012.19 1012.16 1012.10 1012.01 1011.89 1011.75 1011.61
1008.43 1008.49 1008.67 1008.97 1009.38 1009.89 1010.46 1011.05 1011.63 1012.16 1012.60 1012.95 1013.20 1013.34 1013.40 1013.39 1013.34 1013.26 1013.19 1013.13 1013.07 1013.02 1012.97 1012.91 1012.84 1012.74 1012.62 1012.49 1012.35 1012.21 1012.09 1011.99 1011.91 1011.86 1011.83 1011.80 1011.77 1011.72 1011.65 1011.54 1011.41 1011.25 1011.08 1010.91
1009.24 1009.40 1009.67 1010.03 1010.47 1010.98 1011.52 1012.06 1012.57 1013.01 1013.38 1013.64 1013.80 1013.87 1013.85 1013.77 1013.65 1013.52 1013.37 1013.24 1013.11 1012.99 1012.87 1012.75 1012.62 1012.47 1012.31 1012.15 1011.98 1011.82 1011.68 1011.56 1011.47 1011.39 1011.33 1011.28 1011.21 1011.13 1011.02 1010.88 1010.72 1010.54 1010.35 1010.16
1010.28 1010.54 1010.88 1011.28 1011.72 1012.19 1012.66 1013.11 1013.51 1013.83 1014.07 1014.21 1014.26 1014.21 1014.10 1013.93 1013.73 1013.51 1013.29 1013.07 1012.87 1012.68 1012.50 1012.31 1012.13 1011.94 1011.76 1011.57 1011.40 1011.24 1011.10 1010.98 1010.89 1010.81 1010.74 1010.66 1010.58 1010.47 1010.33 1010.16 1009.97 1009.77 1009.56 1009.36
1011.50 1011.85 1012.24 1012.65 1013.06 1013.47 1013.84 1014.16 1014.42 1014.59 1014.67 1014.67 1014.57 1014.41 1014.18 1013.91 1013.62 1013.31 1013.01 1012.72 1012.45 1012.19 1011.95 1011.71 1011.49 1011.27 1011.07 1010.88 1010.71 1010.55 1010.43 1010.33 1010.24 1010.17 1010.09 1010.01 1009.90 1009.77 1009.60 1009.41 1009.19 1008.97 1008.75 1008.54
Thickness
5590 5595 5604 5612 5614 5618 5621 5622 5624 5625 5618 5620 5629 5638 5645 5647 5646 5649 5653 5654 5653 5652 5651 5647 5644 5641 5638 5635 5632 5629 5627 5624 5621 5620 5619 5618 5618 5616 5615 5613 5612 5610 5609 5607
5579 5590 5603 5603 5601 5601 5606 5610 5615 5612 5607 5613 5622 5632 5642 5645 5646 5648 5650 5651 5650 5649 5646 5642 5639 5636 5633 5630 5627 5624 5621 5618 5616 5614 5613 5611 5610 5608 5607 5605 5603 5602 5600 5598
5583 5588 5589 5587 5588 5591 5597 5604 5608 5606 5601 5602 5609 5631 5642 5643 5643 5643 5645 5646 5648 5646 5643 5639 5635 5632 5629 5626 5622 5619 5615 5612 5609 5606 5604 5602 5601 5600 5599 5598 5596 5593 5591 5589
5570 5573 5574 5579 5584 5588 5591 5594 5593 5592 5596 5606 5604 5624 5643 5640 5637 5637 5639 5642 5643 5642 5639 5636 5632 5628 5624 5620 5616 5612 5609 5605 5602 5599 5598 5597 5595 5595 5593 5590 5588 5585 5582 5580
5562 5562 5566 5571 5579 5579 5583 5580 5581 5583 5587 5590 5596 5601 5637 5632 5633 5638 5639 5638 5637 5636 5633 5630 5626 5623 5618 5613 5609 5605 5601 5598 5594 5592 5590 5589 5588 5587 5584 5581 5579 5576 5574 5571
5549 5551 5558 5564 5564 5567 5565 5568 5567 5571 5575 5577 5598 5599 5627 5631 5633 5635 5633 5631 5629 5627 5625 5622 5618 5614 5610 5606 5601 5597 5594 5591 5587 5584 5582 5580 5579 5577 5575 5573 5570 5568 5565 5562
5534 5540 5545 5550 5551 5550 5559 5565 5561 5561 5563 5585 5588 5591 5616 5624 5622 5623 5622 5622 5620 5618 5616 5613 5610 5606 5603 5598 5593 5590 5587 5583 5580 5576 5574 5572 5570 5568 5566 5564 5561 5558 5556 5554
5530 5536 5539 5543 5551 5552 5555 5564 5568 5572 5582 5590 5569 5586 5609 5607 5607 5608 5608 5609 5609 5608 5607 5604 5601 5598 5594 5589 5585 5582 5579 5576 5572 5568 5565 5563 5560 5558 5556 5553 5550 5548 5545 5543
5528 5531 5528 5532 5539 5546 5545 5553 5562 5563 5560 5572 5583 5587 5592 5595 5596 5597 5598 5599 5598 5597 5595 5593 5590 5588 5585 5581 5577 5574 5571 5568 5563 5560 5556 5554 5551 5548 5546 5543 5540 5537 5534 5531
5517 5514 5516 5517 5523 5527 5538 5545 5542 5546 5554 5572 5584 5584 5596 5590 5590 5589 5590 5589 5588 5585 5583 5581 5579 5576 5574 5571 5567 5564 5562 5558 5554 5551 5548 5545 5542 5539 5536 5533 5529 5527 5524 5520
5502 5501 5501 5507 5516 5525 5522 5526 5537 5545 5551 5567 5578 5585 5583 5582 5580 5580 5580 5578 5576 5573 5571 5569 5567 5565 5562 5559 5557 5554 5551 5548 5544 5541 5538 5535 5532 5529 5525 5522 5519 5516 5513 5509
5491 5496 5497 5501 5501 5507 5520 5528 5531 5536 5532 5543 5565 5571 5563 5564 5564 5564 5565 5563 5562 5560 5558 5557 5555 5553 5550 5548 5546 5543 5540 5538 5534 5530 5528 5525 5521 5518 5515 5512 5508 5505 5502 5499
5476 5478 5485 5491 5488 5488 5497 5506 5512 5518 5527 5535 5550 5560 5548 5550 5551 5550 5550 5550 5548 5545 5544 5544 5542 5540 5538 5536 5534 5532 5529 5525 5522 5519 5516 5513 5511 5507 5504 5501 5497 5494 5491 5488
5468 5467 5485 5502 5506 5498 5492 5494 5495 5505 5517 5527 5540 5549 5543 5541 5540 5538 5537 5535 5535 5533 5531 5530 5529 5528 5526 5523 5521 5519 5516 5512 5510 5506 5504 5501 5499 5495 5492 5489 5486 5482 5479 5476
5453 5458 5463 5475 5481 5486 5490 5492 5490 5495 5510 5518 5532 5531 5535 5532 5528 5525 5523 5521 5520 5519 5517 5516 5515 5514 5512 5510 5508 5505 5502 5499 5496 5494 5491 5489 5486 5482 5479 5476 5474 5470 5467 5465
5437 5445 5451 5457 5466 5471 5476 5484 5488 5491 5498 5504 5509 5516 5519 5515 5513 5512 5511 5507 5506 5505 5504 5502 5501 5499 5498 5495 5493 5490 5488 5485 5482 5480 5478 5475 5472 5470 5467 5464 5461 5459 5456 5454
5426 5431 5444 5456 5451 5455 5467 5477 5480 5485 5489 5495 5500 5508 5502 5500 5499 5499 5497 5494 5493 5491 5490 5489 5487 5486 5483 5481 5478 5476 5473 5470 5468 5466 5464 5461 5459 5457 5455 5452 5449 5447 5445 5443
5414 5420 5429 5438 5439 5450 5470 5465 5470 5473 5474 5477 5483 5486 5486 5486 5482 5481 5482 5481 5480 5478 5475 5474 5472 5470 5467 5465 5463 5461 5459 5456 5454 5452 5450 5448 5446 5444 5442 5440 5438 5436 5434 5432
5410 5411 5419 5427 5439 5450 5452 5448 5450 5456 5459 5459 5463 5466 5466 5465 5467 5469 5465 5464 5464 5463 5461 5459 5456 5454 5452 5450 5448 5446 5445 5442 5440 5439 5436 5434 5432 5431 5429 5428 5427 5425 5423 5422
5398 5401 5409 5416 5429 5439 5443 5437 5435 5443 5449 5446 5447 5449 5450 5452 5463 5463 5450 5448 5447 5445 5444 5442 5440 5439 5438 5436 5434 5432 5431 5429 5428 5425 5423 5421 5419 5418 5417 5417 5416 5415 5414 5413
5390 5394 5399 5407 5417 5428 5421 5418 5425 5437 5439 5430 5431 5432 5435 5440 5443 5437 5433 5431 5430 5428 5427 5426 5425 5424 5423 5421 5420 5419 5418 5416 5414 5411 5410 5409 5407 5407 5407 5407 5406 5406 5405 5405
5392 5395 5393 5399 5405 5414 5404 5408 5415 5417 5413 5413 5415 5417 5418 5418 5417 5416 5416 5415 5414 5412 5412 5411 5410 5409 5408 5407 5406 5406 5404 5402 5400 5399 5399 5398 5397 5397 5396 5397 5397 5397 5397 5397
5381 5387 5394 5396 5400 5394 5391 5393 5394 5397 5398 5399 5400 5401 5402 5402 5402 5401 5401 5400 5399 5398 5397 5396 5396 5395 5394 5393 5392 5392 5390 5389 5388 5388 5389 5388 5388 5387 5387 5388 5389 5389 5389 5389
5368 5366 5373 5377 5381 5379 5378 5379 5379 5382 5384 5384 5385 5386 5388 5388 5388 5386 5385 5385 5384 5383 5382 5382 5382 5382 5381 5380 5379 5378 5377 5376 5377 5378 5378 5378 5379 5379 5379 5379 5379 5380 5380 5380
5361 5357 5364 5367 5366 5365 5368 5367 5368 5368 5369 5370 5371 5372 5373 5374 5373 5372 5371 5370 5370 5369 5369 5368 5369 5369 5369 5367 5367 5366 5366 5365 5366 5367 5368 5368 5368 5369 5371 5371 5371 5371 5371 5370
5345 5349 5357 5365 5359 5360 5361 5356 5356 5356 5357 5357 5357 5358 5358 5358 5357 5357 5357 5356 5356 5356 5356 5356 5356 5356 5356 5355 5355 5354 5354 5354 5355 5357 5358 5358 5359 5360 5361 5362 5364 5364 5363 5364